QPF
0.00 0.00 0.00 0.00 0.00 0.00 0.01 0.01 0.01 0.02 0.03 0.05 0.10 0.16 0.23 0.27 0.29 0.30 0.30 0.28 0.27 0.25 0.22 0.19 0.16 0.13 0.09 0.08 0.07 0.04 0.03 0.02 0.01 0.01 0.01 0.00 0.00 0.00 0.00 0.00 0.00 0.00 0.00
0.00 0.00 0.00 0.00 0.00 0.00 0.00 0.01 0.01 0.02 0.03 0.06 0.10 0.13 0.19 0.23 0.24 0.27 0.32 0.31 0.28 0.27 0.24 0.19 0.14 0.09 0.05 0.03 0.02 0.01 0.01 0.00 0.00 0.00 0.00 0.00 0.00 0.00 0.00 0.00 0.01 0.01 0.01
0.00 0.00 0.00 0.00 0.00 0.00 0.00 0.01 0.01 0.01 0.03 0.05 0.08 0.12 0.18 0.24 0.27 0.27 0.29 0.31 0.31 0.28 0.25 0.19 0.12 0.06 0.02 0.01 0.00 0.00 0.00 0.00 0.00 0.00 0.00 0.00 0.00 0.00 0.00 0.00 0.00 0.01 0.01
0.00 0.00 0.00 0.00 0.00 0.00 0.00 0.00 0.01 0.01 0.02 0.04 0.06 0.09 0.15 0.21 0.27 0.33 0.32 0.30 0.23 0.16 0.12 0.09 0.06 0.03 0.01 0.00 0.00 0.00 0.00 0.00 0.00 0.00 0.00 0.00 0.00 0.00 0.00 0.00 0.00 0.00 0.01
0.00 0.00 0.00 0.01 0.00 0.00 0.00 0.00 0.00 0.00 0.01 0.03 0.07 0.09 0.11 0.15 0.21 0.19 0.16 0.14 0.09 0.05 0.03 0.02 0.02 0.01 0.00 0.00 0.00 0.00 0.00 0.00 0.00 0.00 0.00 0.00 0.00 0.00 0.00 0.00 0.00 0.00 0.00
0.00 0.00 0.01 0.01 0.00 0.00 0.00 0.00 0.00 0.00 0.01 0.02 0.05 0.09 0.10 0.12 0.19 0.12 0.06 0.04 0.04 0.03 0.02 0.01 0.01 0.01 0.00 0.00 0.00 0.00 0.00 0.00 0.00 0.00 0.00 0.00 0.00 0.00 0.00 0.00 0.00 0.00 0.00
0.00 0.01 0.01 0.01 0.01 0.00 0.00 0.00 0.00 0.00 0.01 0.01 0.01 0.02 0.04 0.05 0.08 0.06 0.02 0.02 0.02 0.02 0.01 0.00 0.00 0.00 0.00 0.00 0.00 0.00 0.00 0.00 0.00 0.00 0.00 0.00 0.00 0.00 0.00 0.00 0.00 0.00 0.00
0.01 0.01 0.01 0.01 0.01 0.00 0.00 0.00 0.00 0.00 0.00 0.00 0.00 0.00 0.01 0.01 0.02 0.02 0.01 0.01 0.01 0.01 0.00 0.00 0.00 0.00 0.00 0.00 0.00 0.00 0.00 0.00 0.00 0.00 0.00 0.00 0.00 0.00 0.00 0.00 0.00 0.00 0.00
0.02 0.01 0.01 0.02 0.02 0.01 0.00 0.00 0.00 0.00 0.00 0.00 0.00 0.00 0.00 0.00 0.00 0.00 0.00 0.00 0.00 0.00 0.00 0.00 0.00 0.00 0.00 0.00 0.00 0.00 0.00 0.00 0.00 0.00 0.00 0.00 0.00 0.00 0.00 0.00 0.00 0.00 0.00
0.04 0.03 0.03 0.02 0.02 0.01 0.01 0.00 0.00 0.00 0.00 0.00 0.00 0.00 0.00 0.00 0.00 0.00 0.00 0.00 0.00 0.00 0.00 0.00 0.00 0.00 0.00 0.00 0.00 0.00 0.00 0.00 0.00 0.00 0.00 0.00 0.00 0.00 0.00 0.00 0.00 0.00 0.00
0.06 0.06 0.05 0.04 0.03 0.02 0.01 0.01 0.00 0.00 0.00 0.00 0.00 0.00 0.00 0.00 0.00 0.00 0.00 0.00 0.00 0.00 0.00 0.00 0.00 0.00 0.00 0.00 0.00 0.00 0.00 0.00 0.00 0.00 0.00 0.00 0.00 0.00 0.00 0.00 0.00 0.00 0.00
0.10 0.10 0.09 0.07 0.04 0.02 0.02 0.02 0.02 0.01 0.01 0.00 0.00 0.00 0.00 0.00 0.00 0.00 0.00 0.00 0.00 0.00 0.00 0.00 0.00 0.00 0.00 0.00 0.00 0.00 0.00 0.00 0.00 0.00 0.00 0.00 0.00 0.00 0.00 0.00 0.00 0.00 0.00
0.14 0.13 0.11 0.10 0.07 0.05 0.04 0.03 0.02 0.02 0.01 0.00 0.00 0.00 0.00 0.00 0.00 0.00 0.00 0.00 0.00 0.00 0.00 0.00 0.00 0.00 0.00 0.00 0.00 0.00 0.00 0.00 0.00 0.00 0.00 0.00 0.00 0.00 0.00 0.00 0.00 0.00 0.00
0.18 0.15 0.13 0.12 0.09 0.06 0.06 0.05 0.03 0.01 0.01 0.00 0.00 0.00 0.00 0.00 0.00 0.00 0.00 0.00 0.00 0.00 0.00 0.00 0.00 0.00 0.00 0.00 0.00 0.00 0.00 0.00 0.00 0.00 0.00 0.00 0.00 0.00 0.00 0.00 0.00 0.00 0.00
0.24 0.20 0.17 0.14 0.11 0.09 0.08 0.07 0.04 0.02 0.01 0.00 0.00 0.00 0.00 0.00 0.00 0.00 0.00 0.00 0.00 0.00 0.00 0.00 0.00 0.00 0.00 0.00 0.00 0.00 0.00 0.00 0.00 0.00 0.00 0.00 0.00 0.00 0.00 0.00 0.00 0.00 0.00
0.31 0.31 0.26 0.20 0.15 0.10 0.08 0.06 0.04 0.03 0.02 0.01 0.00 0.00 0.00 0.00 0.00 0.00 0.00 0.00 0.00 0.00 0.00 0.00 0.00 0.00 0.00 0.00 0.00 0.00 0.00 0.00 0.00 0.00 0.00 0.00 0.00 0.00 0.00 0.00 0.00 0.00 0.00
0.34 0.34 0.31 0.25 0.19 0.12 0.07 0.04 0.02 0.02 0.02 0.01 0.00 0.00 0.00 0.00 0.00 0.00 0.00 0.00 0.00 0.00 0.00 0.00 0.00 0.00 0.00 0.00 0.00 0.00 0.00 0.00 0.00 0.00 0.00 0.00 0.00 0.00 0.00 0.00 0.00 0.00 0.00
0.32 0.34 0.32 0.27 0.20 0.14 0.08 0.03 0.02 0.02 0.01 0.01 0.00 0.00 0.00 0.00 0.00 0.00 0.00 0.00 0.00 0.00 0.00 0.00 0.00 0.00 0.00 0.00 0.00 0.00 0.00 0.00 0.00 0.00 0.00 0.00 0.00 0.00 0.00 0.00 0.00 0.00 0.00
0.29 0.32 0.32 0.28 0.22 0.16 0.10 0.05 0.02 0.02 0.01 0.01 0.00 0.00 0.00 0.00 0.00 0.00 0.00 0.00 0.00 0.00 0.00 0.00 0.00 0.00 0.00 0.00 0.00 0.00 0.00 0.00 0.00 0.00 0.00 0.00 0.00 0.00 0.00 0.00 0.00 0.00 0.00
0.26 0.29 0.31 0.28 0.23 0.18 0.13 0.06 0.03 0.01 0.01 0.00 0.00 0.00 0.00 0.00 0.00 0.00 0.00 0.00 0.00 0.00 0.00 0.00 0.00 0.00 0.00 0.00 0.00 0.00 0.00 0.00 0.00 0.00 0.00 0.00 0.00 0.00 0.00 0.00 0.00 0.00 0.00
0.26 0.28 0.28 0.26 0.21 0.16 0.14 0.08 0.03 0.01 0.01 0.00 0.00 0.00 0.00 0.00 0.00 0.00 0.00 0.00 0.00 0.00 0.00 0.00 0.00 0.00 0.00 0.00 0.00 0.00 0.00 0.00 0.00 0.00 0.00 0.00 0.00 0.00 0.00 0.00 0.00 0.00 0.00
0.26 0.27 0.26 0.22 0.18 0.14 0.12 0.09 0.04 0.02 0.01 0.00 0.00 0.00 0.00 0.00 0.00 0.00 0.00 0.00 0.00 0.00 0.00 0.00 0.00 0.00 0.00 0.00 0.00 0.00 0.00 0.00 0.00 0.00 0.00 0.00 0.00 0.00 0.00 0.00 0.00 0.00 0.00
0.26 0.27 0.24 0.18 0.15 0.13 0.10 0.08 0.05 0.03 0.01 0.01 0.00 0.00 0.00 0.00 0.00 0.00 0.00 0.00 0.00 0.00 0.00 0.00 0.00 0.00 0.00 0.00 0.00 0.00 0.00 0.00 0.00 0.00 0.00 0.00 0.00 0.00 0.00 0.00 0.00 0.00 0.00
0.26 0.27 0.24 0.16 0.13 0.11 0.08 0.06 0.05 0.03 0.02 0.01 0.00 0.00 0.00 0.00 0.00 0.00 0.00 0.00 0.00 0.00 0.00 0.00 0.00 0.00 0.00 0.00 0.00 0.00 0.00 0.00 0.00 0.00 0.00 0.00 0.00 0.00 0.00 0.00 0.00 0.00 0.00
0.25 0.27 0.23 0.15 0.10 0.08 0.06 0.04 0.03 0.02 0.02 0.01 0.00 0.00 0.00 0.00 0.00 0.00 0.00 0.00 0.00 0.00 0.00 0.00 0.00 0.00 0.00 0.00 0.00 0.00 0.00 0.00 0.00 0.00 0.00 0.00 0.00 0.00 0.00 0.00 0.00 0.00 0.00
0.22 0.26 0.24 0.16 0.08 0.05 0.04 0.02 0.02 0.01 0.01 0.01 0.00 0.00 0.00 0.00 0.00 0.00 0.00 0.00 0.00 0.00 0.00 0.00 0.00 0.00 0.00 0.00 0.00 0.00 0.00 0.00 0.00 0.00 0.00 0.00 0.00 0.00 0.00 0.00 0.00 0.00 0.00
MSLP
1009.81 1010.07 1010.34 1010.58 1010.69 1010.64 1010.40 1009.96 1009.35 1008.61 1007.83 1007.05 1006.36 1005.81 1005.43 1005.23 1005.20 1005.33 1005.57 1005.89 1006.25 1006.60 1006.92 1007.19 1007.41 1007.59 1007.74 1007.86 1007.99 1008.13 1008.28 1008.44 1008.60 1008.74 1008.84 1008.88 1008.85 1008.75 1008.59 1008.40 1008.19 1008.00 1007.86
1009.58 1009.82 1010.11 1010.37 1010.55 1010.57 1010.41 1010.05 1009.51 1008.83 1008.07 1007.31 1006.60 1006.02 1005.61 1005.37 1005.33 1005.44 1005.68 1006.01 1006.37 1006.73 1007.05 1007.31 1007.51 1007.67 1007.79 1007.89 1008.01 1008.16 1008.34 1008.55 1008.78 1008.99 1009.17 1009.28 1009.31 1009.25 1009.12 1008.94 1008.72 1008.51 1008.33
1009.22 1009.45 1009.75 1010.05 1010.29 1010.40 1010.34 1010.10 1009.67 1009.10 1008.43 1007.72 1007.06 1006.50 1006.08 1005.83 1005.77 1005.87 1006.10 1006.42 1006.77 1007.12 1007.42 1007.66 1007.84 1007.96 1008.04 1008.12 1008.23 1008.37 1008.56 1008.80 1009.07 1009.34 1009.57 1009.74 1009.83 1009.82 1009.72 1009.55 1009.33 1009.09 1008.87
1008.75 1008.96 1009.26 1009.60 1009.90 1010.12 1010.19 1010.09 1009.81 1009.39 1008.85 1008.26 1007.68 1007.17 1006.78 1006.55 1006.47 1006.56 1006.76 1007.05 1007.38 1007.71 1007.98 1008.20 1008.35 1008.43 1008.49 1008.54 1008.62 1008.75 1008.94 1009.18 1009.47 1009.77 1010.04 1010.25 1010.38 1010.40 1010.33 1010.16 1009.94 1009.68 1009.42
1008.24 1008.40 1008.68 1009.04 1009.40 1009.70 1009.91 1009.97 1009.87 1009.63 1009.27 1008.83 1008.38 1007.96 1007.62 1007.41 1007.33 1007.39 1007.56 1007.82 1008.11 1008.40 1008.65 1008.83 1008.96 1009.02 1009.06 1009.08 1009.14 1009.24 1009.41 1009.65 1009.93 1010.22 1010.51 1010.73 1010.88 1010.93 1010.87 1010.72 1010.49 1010.21 1009.91
1007.74 1007.83 1008.07 1008.41 1008.79 1009.17 1009.49 1009.71 1009.80 1009.75 1009.59 1009.33 1009.03 1008.72 1008.46 1008.28 1008.20 1008.24 1008.37 1008.58 1008.83 1009.08 1009.30 1009.47 1009.58 1009.64 1009.66 1009.68 1009.72 1009.80 1009.94 1010.14 1010.39 1010.66 1010.92 1011.14 1011.29 1011.34 1011.29 1011.15 1010.92 1010.63 1010.32
1007.33 1007.32 1007.47 1007.75 1008.13 1008.54 1008.95 1009.29 1009.55 1009.70 1009.73 1009.66 1009.52 1009.34 1009.16 1009.03 1008.96 1008.98 1009.07 1009.23 1009.44 1009.66 1009.86 1010.03 1010.14 1010.21 1010.24 1010.26 1010.29 1010.35 1010.45 1010.61 1010.81 1011.04 1011.26 1011.45 1011.58 1011.62 1011.57 1011.44 1011.22 1010.94 1010.62
1007.05 1006.91 1006.93 1007.11 1007.43 1007.83 1008.27 1008.71 1009.11 1009.42 1009.64 1009.75 1009.77 1009.72 1009.64 1009.56 1009.51 1009.52 1009.59 1009.71 1009.89 1010.08 1010.28 1010.45 1010.59 1010.68 1010.74 1010.77 1010.80 1010.85 1010.93 1011.04 1011.18 1011.35 1011.51 1011.65 1011.75 1011.78 1011.73 1011.61 1011.41 1011.15 1010.85
1006.89 1006.60 1006.47 1006.52 1006.72 1007.07 1007.50 1007.99 1008.48 1008.93 1009.30 1009.57 1009.75 1009.83 1009.86 1009.84 1009.83 1009.84 1009.89 1010.00 1010.16 1010.35 1010.55 1010.74 1010.91 1011.05 1011.15 1011.21 1011.26 1011.30 1011.35 1011.42 1011.51 1011.61 1011.71 1011.80 1011.86 1011.87 1011.83 1011.72 1011.55 1011.33 1011.06
1006.81 1006.36 1006.07 1005.96 1006.03 1006.28 1006.68 1007.17 1007.71 1008.26 1008.75 1009.17 1009.49 1009.70 1009.83 1009.89 1009.93 1009.97 1010.03 1010.14 1010.29 1010.49 1010.71 1010.94 1011.15 1011.34 1011.48 1011.59 1011.66 1011.71 1011.75 1011.78 1011.82 1011.87 1011.92 1011.96 1011.99 1011.98 1011.93 1011.84 1011.71 1011.53 1011.30
1006.75 1006.15 1005.70 1005.43 1005.37 1005.50 1005.83 1006.30 1006.86 1007.47 1008.06 1008.60 1009.04 1009.38 1009.61 1009.77 1009.88 1009.96 1010.05 1010.18 1010.35 1010.57 1010.82 1011.08 1011.34 1011.58 1011.78 1011.93 1012.03 1012.10 1012.14 1012.15 1012.16 1012.17 1012.18 1012.18 1012.18 1012.16 1012.12 1012.05 1011.94 1011.80 1011.62
1006.61 1005.90 1005.32 1004.92 1004.72 1004.75 1005.00 1005.43 1005.99 1006.64 1007.31 1007.94 1008.49 1008.94 1009.29 1009.55 1009.74 1009.89 1010.03 1010.20 1010.40 1010.64 1010.92 1011.22 1011.52 1011.80 1012.05 1012.24 1012.38 1012.48 1012.53 1012.54 1012.54 1012.53 1012.51 1012.50 1012.48 1012.45 1012.41 1012.35 1012.27 1012.16 1012.01
1006.35 1005.57 1004.90 1004.40 1004.10 1004.05 1004.22 1004.61 1005.16 1005.83 1006.55 1007.26 1007.91 1008.47 1008.93 1009.29 1009.57 1009.79 1010.00 1010.21 1010.45 1010.73 1011.03 1011.36 1011.69 1012.01 1012.29 1012.53 1012.70 1012.83 1012.90 1012.93 1012.94 1012.93 1012.91 1012.89 1012.86 1012.84 1012.80 1012.75 1012.68 1012.59 1012.46
1005.93 1005.13 1004.42 1003.87 1003.51 1003.40 1003.52 1003.87 1004.41 1005.09 1005.84 1006.61 1007.34 1007.99 1008.55 1009.01 1009.38 1009.69 1009.97 1010.23 1010.51 1010.81 1011.14 1011.49 1011.84 1012.17 1012.48 1012.74 1012.95 1013.11 1013.22 1013.29 1013.32 1013.33 1013.33 1013.32 1013.30 1013.28 1013.25 1013.20 1013.14 1013.05 1012.94
1005.35 1004.58 1003.88 1003.32 1002.95 1002.81 1002.90 1003.23 1003.75 1004.42 1005.19 1006.00 1006.79 1007.52 1008.16 1008.71 1009.18 1009.57 1009.91 1010.23 1010.54 1010.86 1011.20 1011.55 1011.90 1012.25 1012.57 1012.85 1013.10 1013.29 1013.44 1013.55 1013.62 1013.67 1013.70 1013.72 1013.72 1013.72 1013.69 1013.65 1013.59 1013.50 1013.38
1004.65 1003.95 1003.30 1002.77 1002.42 1002.27 1002.35 1002.66 1003.16 1003.82 1004.59 1005.42 1006.25 1007.03 1007.74 1008.37 1008.91 1009.37 1009.77 1010.13 1010.47 1010.81 1011.15 1011.50 1011.85 1012.19 1012.52 1012.82 1013.09 1013.31 1013.51 1013.67 1013.79 1013.89 1013.97 1014.03 1014.06 1014.08 1014.07 1014.04 1013.98 1013.90 1013.77
1003.88 1003.27 1002.69 1002.22 1001.90 1001.77 1001.85 1002.14 1002.62 1003.26 1004.02 1004.84 1005.69 1006.51 1007.27 1007.95 1008.55 1009.07 1009.52 1009.92 1010.28 1010.63 1010.97 1011.31 1011.65 1011.98 1012.31 1012.62 1012.91 1013.17 1013.41 1013.62 1013.80 1013.96 1014.09 1014.20 1014.28 1014.32 1014.34 1014.33 1014.28 1014.20 1014.09
1003.09 1002.56 1002.07 1001.67 1001.39 1001.28 1001.36 1001.63 1002.08 1002.69 1003.43 1004.24 1005.08 1005.92 1006.71 1007.43 1008.08 1008.64 1009.14 1009.56 1009.95 1010.30 1010.64 1010.97 1011.29 1011.62 1011.94 1012.26 1012.57 1012.87 1013.15 1013.41 1013.65 1013.87 1014.06 1014.22 1014.34 1014.43 1014.49 1014.50 1014.48 1014.42 1014.32
1002.28 1001.85 1001.44 1001.09 1000.86 1000.76 1000.84 1001.09 1001.52 1002.10 1002.80 1003.59 1004.43 1005.27 1006.08 1006.83 1007.51 1008.11 1008.64 1009.09 1009.49 1009.85 1010.18 1010.50 1010.82 1011.14 1011.46 1011.79 1012.11 1012.44 1012.76 1013.07 1013.36 1013.63 1013.88 1014.09 1014.27 1014.40 1014.50 1014.56 1014.57 1014.55 1014.49
1001.49 1001.12 1000.78 1000.48 1000.28 1000.20 1000.27 1000.51 1000.91 1001.45 1002.13 1002.90 1003.73 1004.57 1005.40 1006.17 1006.88 1007.51 1008.06 1008.54 1008.95 1009.32 1009.65 1009.96 1010.27 1010.58 1010.90 1011.23 1011.57 1011.92 1012.27 1012.62 1012.96 1013.27 1013.57 1013.83 1014.06 1014.24 1014.39 1014.50 1014.56 1014.59 1014.58
1000.69 1000.38 1000.08 999.82 999.64 999.57 999.64 999.86 1000.24 1000.77 1001.43 1002.19 1003.02 1003.87 1004.70 1005.50 1006.24 1006.89 1007.46 1007.95 1008.38 1008.74 1009.07 1009.38 1009.68 1009.98 1010.30 1010.63 1010.98 1011.34 1011.71 1012.09 1012.46 1012.81 1013.14 1013.45 1013.72 1013.96 1014.16 1014.32 1014.45 1014.54 1014.59
999.88 999.60 999.34 999.10 998.94 998.87 998.94 999.16 999.54 1000.06 1000.72 1001.48 1002.32 1003.18 1004.04 1004.85 1005.61 1006.28 1006.87 1007.38 1007.80 1008.17 1008.49 1008.79 1009.08 1009.37 1009.68 1010.01 1010.35 1010.72 1011.10 1011.49 1011.88 1012.26 1012.62 1012.96 1013.27 1013.56 1013.81 1014.03 1014.22 1014.38 1014.50
999.04 998.79 998.54 998.32 998.17 998.12 998.20 998.42 998.81 999.35 1000.02 1000.80 1001.65 1002.53 1003.41 1004.25 1005.02 1005.71 1006.31 1006.81 1007.24 1007.60 1007.91 1008.19 1008.47 1008.74 1009.04 1009.35 1009.69 1010.05 1010.43 1010.83 1011.22 1011.61 1012.00 1012.36 1012.71 1013.04 1013.34 1013.62 1013.87 1014.09 1014.29
998.19 997.95 997.71 997.50 997.36 997.33 997.42 997.67 998.08 998.65 999.34 1000.15 1001.02 1001.93 1002.82 1003.67 1004.45 1005.15 1005.74 1006.24 1006.66 1007.00 1007.30 1007.56 1007.82 1008.08 1008.35 1008.65 1008.98 1009.33 1009.70 1010.09 1010.49 1010.88 1011.28 1011.67 1012.04 1012.40 1012.75 1013.08 1013.39 1013.68 1013.94
997.33 997.10 996.87 996.67 996.55 996.54 996.66 996.94 997.38 997.97 998.70 999.53 1000.42 1001.34 1002.24 1003.10 1003.88 1004.56 1005.15 1005.63 1006.03 1006.35 1006.63 1006.87 1007.10 1007.34 1007.60 1007.89 1008.20 1008.54 1008.91 1009.29 1009.69 1010.09 1010.49 1010.89 1011.29 1011.69 1012.07 1012.45 1012.81 1013.16 1013.48
996.50 996.28 996.06 995.88 995.78 995.79 995.95 996.25 996.72 997.34 998.08 998.93 999.83 1000.75 1001.64 1002.48 1003.25 1003.91 1004.47 1004.93 1005.31 1005.61 1005.87 1006.09 1006.31 1006.54 1006.79 1007.06 1007.37 1007.71 1008.07 1008.45 1008.85 1009.25 1009.67 1010.09 1010.51 1010.93 1011.35 1011.77 1012.18 1012.58 1012.95
Thickness
5685 5678 5673 5668 5664 5661 5659 5659 5660 5662 5664 5666 5667 5668 5669 5670 5670 5669 5667 5666 5663 5662 5662 5661 5662 5663 5663 5664 5665 5665 5664 5663 5658 5658 5661 5665 5668 5672 5676 5680 5683 5685 5686
5680 5673 5667 5661 5657 5653 5650 5649 5649 5649 5651 5653 5654 5654 5655 5657 5658 5657 5656 5655 5654 5652 5652 5653 5652 5654 5654 5656 5657 5658 5658 5657 5654 5650 5651 5654 5658 5662 5665 5669 5672 5674 5675
5675 5668 5661 5655 5650 5646 5642 5640 5639 5639 5639 5641 5641 5642 5642 5643 5644 5644 5643 5642 5641 5641 5641 5642 5642 5644 5645 5646 5648 5649 5649 5649 5646 5643 5641 5644 5648 5652 5654 5657 5660 5661 5663
5670 5663 5656 5650 5645 5640 5636 5633 5631 5630 5630 5630 5630 5631 5631 5631 5631 5631 5630 5629 5628 5628 5629 5630 5632 5634 5635 5637 5639 5639 5639 5637 5635 5633 5632 5634 5636 5640 5642 5642 5644 5646 5648
5665 5659 5652 5647 5641 5635 5631 5628 5625 5623 5623 5622 5621 5620 5620 5620 5621 5620 5620 5619 5617 5617 5618 5620 5623 5625 5627 5629 5629 5628 5628 5626 5625 5623 5621 5623 5623 5625 5626 5628 5630 5633 5635
5661 5656 5650 5643 5636 5631 5627 5623 5620 5618 5617 5615 5614 5613 5612 5612 5612 5612 5612 5610 5609 5609 5609 5611 5613 5615 5617 5618 5619 5620 5620 5618 5615 5614 5612 5612 5612 5613 5615 5618 5618 5619 5619
5656 5652 5647 5640 5633 5628 5624 5619 5615 5613 5611 5610 5608 5607 5605 5605 5606 5606 5605 5604 5602 5602 5602 5604 5606 5606 5608 5608 5609 5611 5611 5611 5611 5608 5606 5605 5604 5605 5606 5607 5606 5605 5605
5649 5647 5644 5638 5631 5626 5620 5616 5612 5609 5607 5605 5603 5601 5600 5600 5600 5600 5599 5598 5596 5595 5595 5596 5596 5597 5599 5600 5601 5601 5601 5602 5602 5602 5601 5599 5599 5598 5598 5597 5596 5596 5595
5639 5640 5640 5636 5630 5623 5618 5614 5609 5605 5603 5602 5600 5597 5595 5595 5596 5596 5595 5592 5589 5587 5588 5590 5591 5591 5593 5595 5594 5593 5594 5594 5597 5597 5596 5595 5594 5594 5592 5590 5586 5583 5579
5624 5630 5634 5633 5628 5623 5618 5613 5608 5604 5601 5599 5596 5594 5593 5591 5593 5592 5591 5587 5583 5581 5582 5584 5586 5587 5588 5589 5588 5587 5586 5585 5587 5589 5587 5586 5585 5584 5582 5579 5576 5571 5567
5610 5617 5623 5627 5625 5622 5617 5612 5607 5602 5598 5595 5593 5591 5589 5589 5590 5590 5589 5586 5583 5581 5579 5579 5580 5583 5583 5583 5583 5582 5581 5581 5580 5579 5577 5576 5575 5574 5572 5571 5568 5564 5558
5595 5604 5612 5618 5621 5619 5614 5609 5605 5601 5595 5592 5590 5587 5586 5586 5587 5588 5588 5587 5585 5581 5578 5577 5577 5579 5579 5579 5578 5578 5578 5576 5574 5571 5568 5565 5564 5563 5562 5561 5560 5556 5552
5576 5587 5597 5608 5613 5615 5611 5608 5603 5599 5595 5591 5589 5587 5584 5583 5584 5586 5586 5585 5584 5581 5578 5577 5576 5576 5575 5574 5574 5574 5572 5570 5567 5563 5559 5557 5556 5555 5554 5553 5550 5548 5544
5557 5570 5583 5593 5602 5607 5608 5607 5603 5599 5595 5592 5589 5587 5584 5581 5580 5581 5581 5581 5580 5578 5575 5574 5573 5572 5570 5570 5569 5567 5566 5563 5561 5557 5554 5552 5551 5549 5545 5542 5538 5535 5531
5540 5555 5568 5581 5593 5599 5602 5605 5605 5604 5601 5596 5593 5591 5587 5583 5583 5583 5582 5579 5577 5575 5571 5568 5566 5565 5564 5562 5561 5561 5559 5558 5555 5552 5549 5546 5544 5541 5538 5535 5531 5526 5521
5526 5540 5553 5568 5582 5591 5596 5598 5600 5601 5599 5597 5595 5593 5591 5590 5586 5582 5581 5580 5577 5574 5570 5566 5563 5562 5561 5559 5557 5556 5554 5553 5551 5548 5545 5542 5538 5535 5532 5528 5524 5519 5514
5516 5528 5542 5557 5573 5584 5590 5593 5592 5591 5593 5591 5591 5590 5590 5587 5584 5581 5579 5577 5574 5572 5567 5564 5562 5561 5559 5557 5555 5554 5552 5550 5548 5545 5542 5539 5536 5532 5528 5524 5519 5515 5510
5510 5521 5534 5550 5564 5577 5585 5590 5592 5591 5588 5585 5585 5585 5586 5584 5581 5578 5575 5572 5567 5566 5566 5563 5561 5560 5558 5556 5554 5552 5550 5547 5545 5543 5540 5537 5534 5530 5525 5521 5516 5511 5505
5506 5516 5529 5544 5557 5570 5580 5585 5588 5590 5590 5584 5578 5577 5578 5578 5576 5574 5573 5572 5568 5564 5563 5562 5561 5560 5558 5557 5555 5552 5550 5547 5544 5541 5538 5535 5531 5528 5523 5518 5513 5510 5503
5505 5516 5527 5539 5552 5565 5576 5581 5585 5587 5586 5584 5582 5577 5572 5570 5568 5567 5568 5570 5569 5566 5563 5562 5561 5559 5558 5556 5554 5552 5548 5546 5543 5539 5536 5533 5530 5526 5522 5517 5512 5506 5500
5504 5514 5527 5537 5549 5563 5574 5580 5584 5586 5586 5585 5583 5580 5578 5578 5576 5572 5570 5569 5569 5567 5564 5562 5561 5559 5557 5555 5554 5552 5549 5546 5543 5540 5536 5533 5529 5525 5520 5515 5510 5504 5498
5504 5514 5524 5536 5548 5561 5572 5579 5582 5585 5586 5585 5582 5576 5572 5578 5577 5574 5571 5571 5569 5568 5566 5564 5562 5560 5559 5557 5555 5552 5549 5546 5543 5540 5536 5533 5528 5524 5519 5514 5508 5502 5496
5504 5515 5526 5537 5548 5560 5571 5577 5581 5584 5585 5584 5582 5578 5571 5574 5574 5574 5572 5571 5569 5567 5566 5564 5563 5561 5560 5559 5557 5555 5552 5549 5546 5543 5538 5533 5528 5523 5518 5513 5507 5500 5494
5506 5518 5529 5540 5550 5562 5571 5577 5581 5584 5585 5584 5583 5580 5577 5576 5575 5574 5572 5571 5569 5568 5566 5565 5563 5562 5560 5558 5557 5556 5554 5552 5549 5544 5540 5535 5529 5523 5517 5511 5506 5500 5493
5509 5521 5531 5542 5553 5564 5573 5578 5582 5584 5585 5585 5583 5581 5578 5577 5576 5574 5573 5571 5569 5568 5567 5565 5564 5563 5561 5559 5558 5556 5554 5552 5549 5545 5540 5535 5530 5524 5517 5511 5504 5497 5490
5515 5526 5536 5546 5557 5567 5574 5580 5583 5585 5586 5586 5584 5582 5579 5578 5577 5575 5573 5571 5570 5568 5567 5566 5565 5563 5562 5561 5559 5557 5555 5552 5549 5545 5541 5535 5529 5523 5516 5509 5502 5495 5487